Year,Month,Day,Hour,Minute,Value (Times are PST for temperature in C)
2016,05,30,00,00,11.50
2016,05,30,00,01,11.50
2016,05,30,00,02,11.50
2016,05,30,00,03,11.50
2016,05,30,00,04,11.50
2016,05,30,00,05,11.50
2016,05,30,00,06,11.50
2016,05,30,00,07,11.60
2016,05,30,00,08,11.60
2016,05,30,00,09,11.60
2016,05,30,00,10,11.60
2016,05,30,00,11,11.70
2016,05,30,00,12,11.70
2016,05,30,00,13,11.70
2016,05,30,00,14,11.60
2016,05,30,00,15,11.60
2016,05,30,00,16,11.50
2016,05,30,00,17,11.40
2016,05,30,00,18,11.30
2016,05,30,00,19,11.30
2016,05,30,00,20,11.20
2016,05,30,00,21,11.20
2016,05,30,00,22,11.20
2016,05,30,00,23,11.20
2016,05,30,00,24,11.20
2016,05,30,00,25,11.10
2016,05,30,00,26,11.10
2016,05,30,00,27,11.10
2016,05,30,00,28,11.10
2016,05,30,00,29,11.10
2016,05,30,00,30,11.10
2016,05,30,00,31,11.10
2016,05,30,00,32,11.00
2016,05,30,00,33,10.90
2016,05,30,00,34,10.80
2016,05,30,00,35,10.80
2016,05,30,00,36,10.70
2016,05,30,00,37,10.60
2016,05,30,00,38,10.60
2016,05,30,00,39,10.50
2016,05,30,00,40,10.50
2016,05,30,00,41,10.40
2016,05,30,00,42,10.30
2016,05,30,00,43,10.30
2016,05,30,00,44,10.20
2016,05,30,00,45,10.10
2016,05,30,00,46,10.10
2016,05,30,00,47,10.10
2016,05,30,00,48,10.00
2016,05,30,00,49,10.00
2016,05,30,00,50,10.00
2016,05,30,00,51,9.90
2016,05,30,00,52,9.90
2016,05,30,00,53,9.90
2016,05,30,00,54,9.90
2016,05,30,00,55,9.80
2016,05,30,00,56,9.80
2016,05,30,00,57,9.80
2016,05,30,00,58,9.80
2016,05,30,00,59,9.70
2016,05,30,01,00,9.70
2016,05,30,01,01,9.70
2016,05,30,01,02,9.70
2016,05,30,01,03,9.70
2016,05,30,01,04,9.70
2016,05,30,01,05,9.70
2016,05,30,01,06,9.70
2016,05,30,01,07,9.70
2016,05,30,01,08,9.70
2016,05,30,01,09,9.70
2016,05,30,01,10,9.70
2016,05,30,01,11,9.70
2016,05,30,01,12,9.70
2016,05,30,01,13,9.70
2016,05,30,01,14,9.70
2016,05,30,01,15,9.70
2016,05,30,01,16,9.70
2016,05,30,01,17,9.70
2016,05,30,01,18,9.70
2016,05,30,01,19,9.70
2016,05,30,01,20,9.70
2016,05,30,01,21,9.70
2016,05,30,01,22,9.70
2016,05,30,01,23,9.70
2016,05,30,01,24,9.60
2016,05,30,01,25,9.60
2016,05,30,01,26,9.60
2016,05,30,01,27,9.60
2016,05,30,01,28,9.60
2016,05,30,01,29,9.60
2016,05,30,01,30,9.60
2016,05,30,01,31,9.60
2016,05,30,01,32,9.60
2016,05,30,01,33,9.60
2016,05,30,01,34,9.60
2016,05,30,01,35,9.60
2016,05,30,01,36,9.60
2016,05,30,01,37,9.60
2016,05,30,01,38,9.60
2016,05,30,01,39,9.60
2016,05,30,01,40,9.60
2016,05,30,01,41,9.60
2016,05,30,01,42,9.60
2016,05,30,01,43,9.60
2016,05,30,01,44,9.50
2016,05,30,01,45,9.50
2016,05,30,01,46,9.50
2016,05,30,01,47,9.50
2016,05,30,01,48,9.60
2016,05,30,01,49,9.60
2016,05,30,01,50,9.60
2016,05,30,01,51,9.60
2016,05,30,01,52,9.60
2016,05,30,01,53,9.60
2016,05,30,01,54,9.60
2016,05,30,01,55,9.60
2016,05,30,01,56,9.60
2016,05,30,01,57,9.60
2016,05,30,01,58,9.60
2016,05,30,01,59,9.60
2016,05,30,02,00,9.60
2016,05,30,02,01,9.60
2016,05,30,02,02,9.60
2016,05,30,02,03,9.50
2016,05,30,02,04,9.40
2016,05,30,02,05,9.40
2016,05,30,02,06,9.30
2016,05,30,02,07,9.30
2016,05,30,02,08,9.20
2016,05,30,02,09,9.20
2016,05,30,02,10,9.20
2016,05,30,02,11,9.10
2016,05,30,02,12,9.10
2016,05,30,02,13,9.10
2016,05,30,02,14,9.00
2016,05,30,02,15,9.00
2016,05,30,02,16,9.00
2016,05,30,02,17,8.90
2016,05,30,02,18,8.90
2016,05,30,02,19,8.90
2016,05,30,02,20,8.90
2016,05,30,02,21,8.90
2016,05,30,02,22,8.90
2016,05,30,02,23,8.90
2016,05,30,02,24,8.90
2016,05,30,02,25,9.00
2016,05,30,02,26,9.00
2016,05,30,02,27,9.00
2016,05,30,02,28,9.00
2016,05,30,02,29,9.10
2016,05,30,02,30,9.10
2016,05,30,02,31,9.10
2016,05,30,02,32,9.10
2016,05,30,02,33,9.10
2016,05,30,02,34,9.10
2016,05,30,02,35,9.10
2016,05,30,02,36,9.10
2016,05,30,02,37,9.00
2016,05,30,02,38,9.00
2016,05,30,02,39,9.00
2016,05,30,02,40,9.00
2016,05,30,02,41,9.00
2016,05,30,02,42,8.90
2016,05,30,02,43,8.90
2016,05,30,02,44,8.90
2016,05,30,02,45,8.90
2016,05,30,02,46,8.90
2016,05,30,02,47,8.80
2016,05,30,02,48,8.80
2016,05,30,02,49,8.80
2016,05,30,02,50,8.80
2016,05,30,02,51,8.80
2016,05,30,02,52,8.70
2016,05,30,02,53,8.70
2016,05,30,02,54,8.70
2016,05,30,02,55,8.60
2016,05,30,02,56,8.60
2016,05,30,02,57,8.60
2016,05,30,02,58,8.50
2016,05,30,02,59,8.50
2016,05,30,03,00,8.50
2016,05,30,03,01,8.50
2016,05,30,03,02,8.50
2016,05,30,03,03,8.40
2016,05,30,03,04,8.40
2016,05,30,03,05,8.40
2016,05,30,03,06,8.40
2016,05,30,03,07,8.40
2016,05,30,03,08,8.30
2016,05,30,03,09,8.30
2016,05,30,03,10,8.30
2016,05,30,03,11,8.30
2016,05,30,03,12,8.40
2016,05,30,03,13,8.40
2016,05,30,03,14,8.40
2016,05,30,03,15,8.50
2016,05,30,03,16,8.50
2016,05,30,03,17,8.50
2016,05,30,03,18,8.60
2016,05,30,03,19,8.60
2016,05,30,03,20,8.60
2016,05,30,03,21,8.60
2016,05,30,03,22,8.60
2016,05,30,03,23,8.60
2016,05,30,03,24,8.70
2016,05,30,03,25,8.70
2016,05,30,03,26,8.70
2016,05,30,03,27,8.70
2016,05,30,03,28,8.70
2016,05,30,03,29,8.70
2016,05,30,03,30,8.70
2016,05,30,03,31,8.70
2016,05,30,03,32,8.70
2016,05,30,03,33,8.70
2016,05,30,03,34,8.70
2016,05,30,03,35,8.70
2016,05,30,03,36,8.70
2016,05,30,03,37,8.70
2016,05,30,03,38,8.60
2016,05,30,03,39,8.60
2016,05,30,03,40,8.60
2016,05,30,03,41,8.50
2016,05,30,03,42,8.40
2016,05,30,03,43,8.40
2016,05,30,03,44,8.40
2016,05,30,03,45,8.40
2016,05,30,03,46,8.40
2016,05,30,03,47,8.40
2016,05,30,03,48,8.40
2016,05,30,03,49,8.40
2016,05,30,03,50,8.40
2016,05,30,03,51,8.40
2016,05,30,03,52,8.40
2016,05,30,03,53,8.40
2016,05,30,03,54,8.40
2016,05,30,03,55,8.40
2016,05,30,03,56,8.40
2016,05,30,03,57,8.40
2016,05,30,03,58,8.40
2016,05,30,03,59,8.40
2016,05,30,04,00,8.40
2016,05,30,04,01,8.40
2016,05,30,04,02,8.40
2016,05,30,04,03,8.40
2016,05,30,04,04,8.40
2016,05,30,04,05,8.40
2016,05,30,04,06,8.40
2016,05,30,04,07,8.40
2016,05,30,04,08,8.40
2016,05,30,04,09,8.40
2016,05,30,04,10,8.40
2016,05,30,04,11,8.40
2016,05,30,04,12,8.40
2016,05,30,04,13,8.40
2016,05,30,04,14,8.30
2016,05,30,04,15,8.30
2016,05,30,04,16,8.30
2016,05,30,04,17,8.30
2016,05,30,04,18,8.20
2016,05,30,04,19,8.20
2016,05,30,04,20,8.20
2016,05,30,04,21,8.20
2016,05,30,04,22,8.10
2016,05,30,04,23,8.10
2016,05,30,04,24,8.10
2016,05,30,04,25,8.00
2016,05,30,04,26,8.00
2016,05,30,04,27,8.00
2016,05,30,04,28,7.90
2016,05,30,04,29,7.90
2016,05,30,04,30,7.90
2016,05,30,04,31,7.90
2016,05,30,04,32,7.90
2016,05,30,04,33,7.80
2016,05,30,04,34,7.80
2016,05,30,04,35,7.80
2016,05,30,04,36,7.80
2016,05,30,04,37,7.80
2016,05,30,04,38,7.80
2016,05,30,04,39,7.80
2016,05,30,04,40,7.80
2016,05,30,04,41,7.80
2016,05,30,04,42,7.80
2016,05,30,04,43,7.80
2016,05,30,04,44,7.80
2016,05,30,04,45,7.80
2016,05,30,04,46,7.80
2016,05,30,04,47,7.80
2016,05,30,04,48,7.80
2016,05,30,04,49,7.80
2016,05,30,04,50,7.80
2016,05,30,04,51,7.80
2016,05,30,04,52,7.80
2016,05,30,04,53,7.80
2016,05,30,04,54,7.80
2016,05,30,04,55,7.80
2016,05,30,04,56,7.80
2016,05,30,04,57,7.80
2016,05,30,04,58,7.80
2016,05,30,04,59,7.80
2016,05,30,05,00,7.80
2016,05,30,05,01,7.80
2016,05,30,05,02,7.80
2016,05,30,05,03,7.80
2016,05,30,05,04,7.70
2016,05,30,05,05,7.70
2016,05,30,05,06,7.70
2016,05,30,05,07,7.70
2016,05,30,05,08,7.70
2016,05,30,05,09,7.70
2016,05,30,05,10,7.60
2016,05,30,05,11,7.60
2016,05,30,05,12,7.60
2016,05,30,05,13,7.60
2016,05,30,05,14,7.60
2016,05,30,05,15,7.50
2016,05,30,05,16,7.50
2016,05,30,05,17,7.50
2016,05,30,05,18,7.40
2016,05,30,05,19,7.40
2016,05,30,05,20,7.40
2016,05,30,05,21,7.40
2016,05,30,05,22,7.40
2016,05,30,05,23,7.30
2016,05,30,05,24,7.30
2016,05,30,05,25,7.30
2016,05,30,05,26,7.30
2016,05,30,05,27,7.20
2016,05,30,05,28,7.20
2016,05,30,05,29,7.20
2016,05,30,05,30,7.20
2016,05,30,05,31,7.20
2016,05,30,05,32,7.20
2016,05,30,05,33,7.20
2016,05,30,05,34,7.20
2016,05,30,05,35,7.10
2016,05,30,05,36,7.10
2016,05,30,05,37,7.10
2016,05,30,05,38,7.10
2016,05,30,05,39,7.10
2016,05,30,05,40,7.10
2016,05,30,05,41,7.10
2016,05,30,05,42,7.10
2016,05,30,05,43,7.10
2016,05,30,05,44,7.10
2016,05,30,05,45,7.10
2016,05,30,05,46,7.10
2016,05,30,05,47,7.10
2016,05,30,05,48,7.10
2016,05,30,05,49,7.10
2016,05,30,05,50,7.10
2016,05,30,05,51,7.00
2016,05,30,05,52,7.00
2016,05,30,05,53,7.00
2016,05,30,05,54,7.00
2016,05,30,05,55,7.00
2016,05,30,05,56,7.00
2016,05,30,05,57,7.00
2016,05,30,05,58,6.90
2016,05,30,05,59,6.90
2016,05,30,06,00,6.90
2016,05,30,06,01,6.90
2016,05,30,06,02,6.90
2016,05,30,06,03,6.90
2016,05,30,06,04,6.90
2016,05,30,06,05,6.90
2016,05,30,06,06,6.90
2016,05,30,06,07,6.90
2016,05,30,06,08,7.00
2016,05,30,06,09,7.00
2016,05,30,06,10,7.00
2016,05,30,06,11,7.00
2016,05,30,06,12,7.00
2016,05,30,06,13,7.10
2016,05,30,06,14,7.10
2016,05,30,06,15,7.10
2016,05,30,06,16,7.10
2016,05,30,06,17,7.20
2016,05,30,06,18,7.20
2016,05,30,06,19,7.20
2016,05,30,06,20,7.20
2016,05,30,06,21,7.30
2016,05,30,06,22,7.30
2016,05,30,06,23,7.40
2016,05,30,06,24,7.50
2016,05,30,06,25,7.60
2016,05,30,06,26,7.70
2016,05,30,06,27,7.80
2016,05,30,06,28,7.80
2016,05,30,06,29,7.90
2016,05,30,06,30,8.00
2016,05,30,06,31,8.10
2016,05,30,06,32,8.10
2016,05,30,06,33,8.20
2016,05,30,06,34,8.20
2016,05,30,06,35,8.30
2016,05,30,06,36,8.30
2016,05,30,06,37,8.40
2016,05,30,06,38,8.40
2016,05,30,06,39,8.40
2016,05,30,06,40,8.50
2016,05,30,06,41,8.50
2016,05,30,06,42,8.50
2016,05,30,06,43,8.50
2016,05,30,06,44,8.40
2016,05,30,06,45,8.50
2016,05,30,06,46,8.50
2016,05,30,06,47,8.50
2016,05,30,06,48,8.50
2016,05,30,06,49,8.60
2016,05,30,06,50,8.70
2016,05,30,06,51,8.80
2016,05,30,06,52,8.90
2016,05,30,06,53,9.00
2016,05,30,06,54,9.10
2016,05,30,06,55,9.30
2016,05,30,06,56,9.40
2016,05,30,06,57,9.50
2016,05,30,06,58,9.70
2016,05,30,06,59,9.80
2016,05,30,07,00,9.90
2016,05,30,07,01,10.10
2016,05,30,07,02,10.20
2016,05,30,07,03,10.40
2016,05,30,07,04,10.50
2016,05,30,07,05,10.70
2016,05,30,07,06,10.80
2016,05,30,07,07,10.90
2016,05,30,07,08,11.10
2016,05,30,07,09,11.20
2016,05,30,07,10,11.30
2016,05,30,07,11,11.50
2016,05,30,07,12,11.60
2016,05,30,07,13,11.70
2016,05,30,07,14,11.80
2016,05,30,07,15,11.90
2016,05,30,07,16,12.00
2016,05,30,07,17,12.10
2016,05,30,07,18,12.20
2016,05,30,07,19,12.30
2016,05,30,07,20,12.40
2016,05,30,07,21,12.50
2016,05,30,07,22,12.60
2016,05,30,07,23,12.60
2016,05,30,07,24,12.60
2016,05,30,07,25,12.70
2016,05,30,07,26,12.70
2016,05,30,07,27,12.80
2016,05,30,07,28,12.80
2016,05,30,07,29,12.90
2016,05,30,07,30,13.00
2016,05,30,07,31,13.10
2016,05,30,07,32,13.20
2016,05,30,07,33,13.20
2016,05,30,07,34,13.30
2016,05,30,07,35,13.40
2016,05,30,07,36,13.40
2016,05,30,07,37,13.40
2016,05,30,07,38,13.50
2016,05,30,07,39,13.60
2016,05,30,07,40,13.60
2016,05,30,07,41,13.70
2016,05,30,07,42,13.70
2016,05,30,07,43,13.80
2016,05,30,07,44,13.80
2016,05,30,07,45,13.90
2016,05,30,07,46,14.00
2016,05,30,07,47,14.00
2016,05,30,07,48,14.10
2016,05,30,07,49,14.10
2016,05,30,07,50,14.20
2016,05,30,07,51,14.20
2016,05,30,07,52,14.20
2016,05,30,07,53,14.30
2016,05,30,07,54,14.30
2016,05,30,07,55,14.20
2016,05,30,07,56,14.20
2016,05,30,07,57,14.20
2016,05,30,07,58,14.20
2016,05,30,07,59,14.20
2016,05,30,08,00,14.10
2016,05,30,08,01,14.10
2016,05,30,08,02,14.10
2016,05,30,08,03,14.10
2016,05,30,08,04,14.00
2016,05,30,08,05,14.00
2016,05,30,08,06,13.90
2016,05,30,08,07,13.90
2016,05,30,08,08,13.90
2016,05,30,08,09,13.90
2016,05,30,08,10,13.90
2016,05,30,08,11,13.90
2016,05,30,08,12,13.90
2016,05,30,08,13,13.90
2016,05,30,08,14,13.90
2016,05,30,08,15,13.90
2016,05,30,08,16,13.90
2016,05,30,08,17,13.90
2016,05,30,08,18,13.90
2016,05,30,08,19,13.80
2016,05,30,08,20,13.80
2016,05,30,08,21,13.70
2016,05,30,08,22,13.70
2016,05,30,08,23,13.60
2016,05,30,08,24,13.60
2016,05,30,08,25,13.60
2016,05,30,08,26,13.60
2016,05,30,08,27,13.60
2016,05,30,08,28,13.70
2016,05,30,08,29,13.70
2016,05,30,08,30,13.70
2016,05,30,08,31,13.70
2016,05,30,08,32,13.80
2016,05,30,08,33,13.80
2016,05,30,08,34,13.90
2016,05,30,08,35,14.00
2016,05,30,08,36,14.00
2016,05,30,08,37,14.10
2016,05,30,08,38,14.10
2016,05,30,08,39,14.20
2016,05,30,08,40,14.20
2016,05,30,08,41,14.30
2016,05,30,08,42,14.30
2016,05,30,08,43,14.40
2016,05,30,08,44,14.40
2016,05,30,08,45,14.50
2016,05,30,08,46,14.50
2016,05,30,08,47,14.60
2016,05,30,08,48,14.60
2016,05,30,08,49,14.70
2016,05,30,08,50,14.70
2016,05,30,08,51,14.80
2016,05,30,08,52,14.90
2016,05,30,08,53,15.00
2016,05,30,08,54,15.00
2016,05,30,08,55,15.10
2016,05,30,08,56,15.20
2016,05,30,08,57,15.20
2016,05,30,08,58,15.20
2016,05,30,08,59,15.20
2016,05,30,09,00,15.10
2016,05,30,09,01,15.00
2016,05,30,09,02,15.00
2016,05,30,09,03,15.00
2016,05,30,09,04,15.00
2016,05,30,09,05,15.00
2016,05,30,09,06,15.00
2016,05,30,09,07,14.90
2016,05,30,09,08,14.90
2016,05,30,09,09,14.90
2016,05,30,09,10,14.90
2016,05,30,09,11,14.80
2016,05,30,09,12,14.80
2016,05,30,09,13,14.80
2016,05,30,09,14,14.70
2016,05,30,09,15,14.70
2016,05,30,09,16,14.70
2016,05,30,09,17,14.70
2016,05,30,09,18,14.70
2016,05,30,09,19,14.80
2016,05,30,09,20,14.80
2016,05,30,09,21,14.80
2016,05,30,09,22,14.80
2016,05,30,09,23,14.80
2016,05,30,09,24,14.80
2016,05,30,09,25,14.80
2016,05,30,09,26,14.80
2016,05,30,09,27,14.80
2016,05,30,09,28,14.90
2016,05,30,09,29,14.90
2016,05,30,09,30,14.90
2016,05,30,09,31,14.80
2016,05,30,09,32,14.80
2016,05,30,09,33,14.80
2016,05,30,09,34,14.80
2016,05,30,09,35,14.80
2016,05,30,09,36,14.80
2016,05,30,09,37,14.90
2016,05,30,09,38,14.90
2016,05,30,09,39,14.80
2016,05,30,09,40,14.70
2016,05,30,09,41,14.60
2016,05,30,09,42,14.60
2016,05,30,09,43,14.60
2016,05,30,09,44,14.60
2016,05,30,09,45,14.60
2016,05,30,09,46,14.60
2016,05,30,09,47,14.60
2016,05,30,09,48,14.60
2016,05,30,09,49,14.60
2016,05,30,09,50,14.60
2016,05,30,09,51,14.60
2016,05,30,09,52,14.60
2016,05,30,09,53,14.60
2016,05,30,09,54,14.70
2016,05,30,09,55,14.80
2016,05,30,09,56,14.90
2016,05,30,09,57,14.90
2016,05,30,09,58,14.90
2016,05,30,09,59,14.90
2016,05,30,10,00,14.90
2016,05,30,10,01,14.90
2016,05,30,10,02,14.90
2016,05,30,10,03,15.00
2016,05,30,10,04,15.00
2016,05,30,10,05,15.00
2016,05,30,10,06,14.90
2016,05,30,10,07,14.90
2016,05,30,10,08,14.90
2016,05,30,10,09,14.90
2016,05,30,10,10,14.90
2016,05,30,10,11,14.80
2016,05,30,10,12,14.80
2016,05,30,10,13,14.80
2016,05,30,10,14,14.90
2016,05,30,10,15,15.00
2016,05,30,10,16,14.90
2016,05,30,10,17,14.90
2016,05,30,10,18,14.80
2016,05,30,10,19,14.80
2016,05,30,10,20,14.80
2016,05,30,10,21,14.80
2016,05,30,10,22,14.70
2016,05,30,10,23,14.70
2016,05,30,10,24,14.60
2016,05,30,10,25,14.60
2016,05,30,10,26,14.60
2016,05,30,10,27,14.60
2016,05,30,10,28,14.60
2016,05,30,10,29,14.60
2016,05,30,10,30,14.60
2016,05,30,10,31,14.70
2016,05,30,10,32,14.80
2016,05,30,10,33,14.80
2016,05,30,10,34,14.80
2016,05,30,10,35,14.90
2016,05,30,10,36,15.00
2016,05,30,10,37,15.00
2016,05,30,10,38,15.00
2016,05,30,10,39,15.00
2016,05,30,10,40,15.00
2016,05,30,10,41,15.00
2016,05,30,10,42,15.00
2016,05,30,10,43,15.00
2016,05,30,10,44,15.00
2016,05,30,10,45,15.00
2016,05,30,10,46,15.00
2016,05,30,10,47,15.00
2016,05,30,10,48,15.00
2016,05,30,10,49,15.00
2016,05,30,10,50,15.00
2016,05,30,10,51,15.00
2016,05,30,10,52,14.90
2016,05,30,10,53,14.80
2016,05,30,10,54,14.80
2016,05,30,10,55,14.80
2016,05,30,10,56,14.90
2016,05,30,10,57,15.00
2016,05,30,10,58,15.00
2016,05,30,10,59,15.00
2016,05,30,11,00,15.10
2016,05,30,11,01,15.20
2016,05,30,11,02,15.20
2016,05,30,11,03,15.20
2016,05,30,11,04,15.30
2016,05,30,11,05,15.40
2016,05,30,11,06,15.40
2016,05,30,11,07,15.50
2016,05,30,11,08,15.60
2016,05,30,11,09,15.70
2016,05,30,11,10,15.70
2016,05,30,11,11,15.80
2016,05,30,11,12,15.80
2016,05,30,11,13,15.80
2016,05,30,11,14,15.90
2016,05,30,11,15,16.00
2016,05,30,11,16,16.10
2016,05,30,11,17,16.10
2016,05,30,11,18,16.20
2016,05,30,11,19,16.20
2016,05,30,11,20,16.30
2016,05,30,11,21,16.30
2016,05,30,11,22,16.30
2016,05,30,11,23,16.20
2016,05,30,11,24,16.20
2016,05,30,11,25,16.10
2016,05,30,11,26,16.00
2016,05,30,11,27,16.00
2016,05,30,11,28,16.00
2016,05,30,11,29,16.00
2016,05,30,11,30,16.10
2016,05,30,11,31,16.10
2016,05,30,11,32,16.20
2016,05,30,11,33,16.20
2016,05,30,11,34,16.20
2016,05,30,11,35,16.10
2016,05,30,11,36,16.00
2016,05,30,11,37,16.00
2016,05,30,11,38,15.90
2016,05,30,11,39,15.90
2016,05,30,11,40,15.80
2016,05,30,11,41,15.80
2016,05,30,11,42,15.70
2016,05,30,11,43,15.70
2016,05,30,11,44,15.80
2016,05,30,11,45,15.90
2016,05,30,11,46,15.90
2016,05,30,11,47,16.00
2016,05,30,11,48,16.00
2016,05,30,11,49,16.10
2016,05,30,11,50,16.20
2016,05,30,11,51,16.30
2016,05,30,11,52,16.30
2016,05,30,11,53,16.30
2016,05,30,11,54,16.30
2016,05,30,11,55,16.20
2016,05,30,11,56,16.20
2016,05,30,11,57,16.20
2016,05,30,11,58,16.10
2016,05,30,11,59,16.10
2016,05,30,12,00,16.10
2016,05,30,12,01,16.20
2016,05,30,12,02,16.30
2016,05,30,12,03,16.30
2016,05,30,12,04,16.40
2016,05,30,12,05,16.40
2016,05,30,12,06,16.40
2016,05,30,12,07,16.40
2016,05,30,12,08,16.50
2016,05,30,12,09,16.60
2016,05,30,12,10,16.60
2016,05,30,12,11,16.50
2016,05,30,12,12,16.50
2016,05,30,12,13,16.50
2016,05,30,12,14,16.60
2016,05,30,12,15,16.60
2016,05,30,12,16,16.70
2016,05,30,12,17,16.70
2016,05,30,12,18,16.80
2016,05,30,12,19,16.80
2016,05,30,12,20,16.90
2016,05,30,12,21,16.90
2016,05,30,12,22,17.00
2016,05,30,12,23,17.10
2016,05,30,12,24,17.20
2016,05,30,12,25,17.20
2016,05,30,12,26,17.20
2016,05,30,12,27,17.20
2016,05,30,12,28,17.20
2016,05,30,12,29,17.20
2016,05,30,12,30,17.20
2016,05,30,12,31,17.00
2016,05,30,12,32,16.70
2016,05,30,12,33,16.60
2016,05,30,12,34,16.50
2016,05,30,12,35,16.50
2016,05,30,12,36,16.60
2016,05,30,12,37,16.70
2016,05,30,12,38,16.80
2016,05,30,12,39,17.00
2016,05,30,12,40,17.10
2016,05,30,12,41,17.20
2016,05,30,12,42,17.30
2016,05,30,12,43,17.30
2016,05,30,12,44,17.30
2016,05,30,12,45,17.30
2016,05,30,12,46,17.30
2016,05,30,12,47,17.30
2016,05,30,12,48,17.30
2016,05,30,12,49,17.30
2016,05,30,12,50,17.40
2016,05,30,12,51,17.50
2016,05,30,12,52,17.60
2016,05,30,12,53,17.60
2016,05,30,12,54,17.70
2016,05,30,12,55,17.80
2016,05,30,12,56,17.90
2016,05,30,12,57,17.90
2016,05,30,12,58,17.90
2016,05,30,12,59,17.80
2016,05,30,13,00,17.80
2016,05,30,13,01,17.80
2016,05,30,13,02,17.80
2016,05,30,13,03,17.80
2016,05,30,13,04,17.80
2016,05,30,13,05,17.80
2016,05,30,13,06,17.90
2016,05,30,13,07,17.90
2016,05,30,13,08,17.90
2016,05,30,13,09,17.90
2016,05,30,13,10,17.90
2016,05,30,13,11,18.00
2016,05,30,13,12,17.90
2016,05,30,13,13,17.90
2016,05,30,13,14,18.00
2016,05,30,13,15,18.00
2016,05,30,13,16,18.00
2016,05,30,13,17,18.00
2016,05,30,13,18,17.90
2016,05,30,13,19,17.90
2016,05,30,13,20,17.90
2016,05,30,13,21,17.80
2016,05,30,13,22,17.60
2016,05,30,13,23,17.50
2016,05,30,13,24,17.40
2016,05,30,13,25,17.40
2016,05,30,13,26,17.50
2016,05,30,13,27,17.60
2016,05,30,13,28,17.70
2016,05,30,13,29,17.90
2016,05,30,13,30,18.10
2016,05,30,13,31,18.30
2016,05,30,13,32,18.30
2016,05,30,13,33,18.40
2016,05,30,13,34,18.50
2016,05,30,13,35,18.50
2016,05,30,13,36,18.60
2016,05,30,13,37,18.70
2016,05,30,13,38,18.80
2016,05,30,13,39,18.80
2016,05,30,13,40,18.90
2016,05,30,13,41,18.80
2016,05,30,13,42,18.40
2016,05,30,13,43,18.00
2016,05,30,13,44,17.70
2016,05,30,13,45,17.40
2016,05,30,13,46,17.10
2016,05,30,13,47,16.90
2016,05,30,13,48,16.80
2016,05,30,13,49,16.70
2016,05,30,13,50,16.70
2016,05,30,13,51,16.60
2016,05,30,13,52,16.50
2016,05,30,13,53,16.40
2016,05,30,13,54,16.30
2016,05,30,13,55,16.20
2016,05,30,13,56,16.20
2016,05,30,13,57,16.20
2016,05,30,13,58,16.20
2016,05,30,13,59,16.20
2016,05,30,14,00,16.10
2016,05,30,14,01,16.10
2016,05,30,14,02,16.20
2016,05,30,14,03,16.30
2016,05,30,14,04,16.30
2016,05,30,14,05,16.30
2016,05,30,14,06,16.30
2016,05,30,14,07,16.20
2016,05,30,14,08,16.20
2016,05,30,14,09,16.20
2016,05,30,14,10,16.20
2016,05,30,14,11,16.20
2016,05,30,14,12,16.30
2016,05,30,14,13,16.30
2016,05,30,14,14,16.40
2016,05,30,14,15,16.30
2016,05,30,14,16,16.30
2016,05,30,14,17,16.30
2016,05,30,14,18,16.20
2016,05,30,14,19,16.00
2016,05,30,14,20,15.90
2016,05,30,14,21,15.90
2016,05,30,14,22,15.90
2016,05,30,14,23,15.90
2016,05,30,14,24,15.90
2016,05,30,14,25,16.00
2016,05,30,14,26,15.90
2016,05,30,14,27,16.00
2016,05,30,14,28,16.00
2016,05,30,14,29,16.00
2016,05,30,14,30,16.10
2016,05,30,14,31,16.10
2016,05,30,14,32,16.10
2016,05,30,14,33,16.10
2016,05,30,14,34,16.10
2016,05,30,14,35,16.10
2016,05,30,14,36,16.10
2016,05,30,14,37,16.10
2016,05,30,14,38,16.10
2016,05,30,14,39,16.10
2016,05,30,14,40,16.20
2016,05,30,14,41,16.20
2016,05,30,14,42,16.20
2016,05,30,14,43,16.30
2016,05,30,14,44,16.30
2016,05,30,14,45,16.30
2016,05,30,14,46,16.30
2016,05,30,14,47,16.40
2016,05,30,14,48,16.40
2016,05,30,14,49,16.40
2016,05,30,14,50,16.50
2016,05,30,14,51,16.60
2016,05,30,14,52,16.60
2016,05,30,14,53,16.60
2016,05,30,14,54,16.60
2016,05,30,14,55,16.70
2016,05,30,14,56,16.70
2016,05,30,14,57,16.70
2016,05,30,14,58,16.70
2016,05,30,14,59,16.80
2016,05,30,15,00,16.80
2016,05,30,15,01,16.80
2016,05,30,15,02,16.90
2016,05,30,15,03,16.90
2016,05,30,15,04,17.00
2016,05,30,15,05,17.10
2016,05,30,15,06,17.10
2016,05,30,15,07,17.20
2016,05,30,15,08,17.20
2016,05,30,15,09,17.30
2016,05,30,15,10,17.30
2016,05,30,15,11,17.20
2016,05,30,15,12,17.10
2016,05,30,15,13,17.10
2016,05,30,15,14,17.10
2016,05,30,15,15,17.00
2016,05,30,15,16,17.00
2016,05,30,15,17,16.90
2016,05,30,15,18,16.90
2016,05,30,15,19,16.90
2016,05,30,15,20,16.90
2016,05,30,15,21,16.90
2016,05,30,15,22,16.90
2016,05,30,15,23,16.90
2016,05,30,15,24,16.90
2016,05,30,15,25,16.90
2016,05,30,15,26,17.00
2016,05,30,15,27,17.10
2016,05,30,15,28,17.20
2016,05,30,15,29,17.20
2016,05,30,15,30,17.30
2016,05,30,15,31,17.40
2016,05,30,15,32,17.40
2016,05,30,15,33,17.50
2016,05,30,15,34,17.60
2016,05,30,15,35,17.60
2016,05,30,15,36,17.60
2016,05,30,15,37,17.60
2016,05,30,15,38,17.60
2016,05,30,15,39,17.60
2016,05,30,15,40,17.70
2016,05,30,15,41,17.80
2016,05,30,15,42,17.80
2016,05,30,15,43,17.90
2016,05,30,15,44,18.00
2016,05,30,15,45,18.10
2016,05,30,15,46,18.10
2016,05,30,15,47,18.20
2016,05,30,15,48,18.20
2016,05,30,15,49,18.20
2016,05,30,15,50,18.20
2016,05,30,15,51,18.20
2016,05,30,15,52,18.30
2016,05,30,15,53,18.30
2016,05,30,15,54,18.30
2016,05,30,15,55,18.20
2016,05,30,15,56,18.20
2016,05,30,15,57,18.20
2016,05,30,15,58,18.10
2016,05,30,15,59,18.10
2016,05,30,16,00,18.10
2016,05,30,16,01,18.20
2016,05,30,16,02,18.20
2016,05,30,16,03,18.30
2016,05,30,16,04,18.30
2016,05,30,16,05,18.30
2016,05,30,16,06,18.40
2016,05,30,16,07,18.40
2016,05,30,16,08,18.50
2016,05,30,16,09,18.50
2016,05,30,16,10,18.60
2016,05,30,16,11,18.70
2016,05,30,16,12,18.80
2016,05,30,16,13,18.70
2016,05,30,16,14,18.70
2016,05,30,16,15,18.80
2016,05,30,16,16,18.80
2016,05,30,16,17,18.80
2016,05,30,16,18,18.80
2016,05,30,16,19,18.90
2016,05,30,16,20,18.90
2016,05,30,16,21,18.90
2016,05,30,16,22,18.90
2016,05,30,16,23,18.90
2016,05,30,16,24,18.90
2016,05,30,16,25,18.90
2016,05,30,16,26,18.80
2016,05,30,16,27,18.80
2016,05,30,16,28,18.90
2016,05,30,16,29,18.90
2016,05,30,16,30,18.90
2016,05,30,16,31,18.90
2016,05,30,16,32,19.00
2016,05,30,16,33,19.10
2016,05,30,16,34,19.30
2016,05,30,16,35,19.40
2016,05,30,16,36,19.50
2016,05,30,16,37,19.70
2016,05,30,16,38,19.80
2016,05,30,16,39,19.90
2016,05,30,16,40,20.00
2016,05,30,16,41,20.10
2016,05,30,16,42,20.30
2016,05,30,16,43,20.40
2016,05,30,16,44,20.50
2016,05,30,16,45,20.60
2016,05,30,16,46,20.60
2016,05,30,16,47,20.70
2016,05,30,16,48,20.70
2016,05,30,16,49,20.70
2016,05,30,16,50,20.70
2016,05,30,16,51,20.60
2016,05,30,16,52,20.60
2016,05,30,16,53,20.60
2016,05,30,16,54,20.60
2016,05,30,16,55,20.60
2016,05,30,16,56,20.50
2016,05,30,16,57,20.50
2016,05,30,16,58,20.50
2016,05,30,16,59,20.50
2016,05,30,17,00,20.60
2016,05,30,17,01,20.60
2016,05,30,17,02,20.50
2016,05,30,17,03,20.50
2016,05,30,17,04,20.60
2016,05,30,17,05,20.60
2016,05,30,17,06,20.60
2016,05,30,17,07,20.60
2016,05,30,17,08,20.60
2016,05,30,17,09,20.60
2016,05,30,17,10,20.60
2016,05,30,17,11,20.60
2016,05,30,17,12,20.60
2016,05,30,17,13,20.70
2016,05,30,17,14,20.80
2016,05,30,17,15,20.80
2016,05,30,17,16,20.90
2016,05,30,17,17,21.00
2016,05,30,17,18,21.10
2016,05,30,17,19,21.10
2016,05,30,17,20,21.10
2016,05,30,17,21,21.10
2016,05,30,17,22,21.10
2016,05,30,17,23,21.10
2016,05,30,17,24,21.10
2016,05,30,17,25,21.10
2016,05,30,17,26,21.10
2016,05,30,17,27,21.10
2016,05,30,17,28,21.00
2016,05,30,17,29,21.00
2016,05,30,17,30,21.00
2016,05,30,17,31,20.90
2016,05,30,17,32,20.80
2016,05,30,17,33,20.70
2016,05,30,17,34,20.60
2016,05,30,17,35,20.60